Weather Roundup
Issued by NWS Corpus Christi, TX

Home | Current Version | Previous Version | Text Only | Print | Product List | Glossary On
Versions: 1 2 3 4 5 6 7 8 9 10 11 12 13 14 15 16 17 18 19 20 21 22 23 24 25 26 27 28 29 30 31 32 33 34 35 36 37 38 39 40 41 42 43 44 45 46 47 48 49 50
000
ASUS44 KCRP 240810
HRRCRP

SOUTH TEXAS REGIONAL WEATHER ROUNDUP
NATIONAL WEATHER SERVICE CORPUS CHRISTI TX
200 AM CST FRI FEB 24 2017


TXZ229>244-240900-
...CORPUS CHRISTI AREA OBSERVATIONS...

CITY           SKY/WX    TMP DP  RH WIND       PRES   REMARKS
CORPUS CHRISTI CLEAR     68  66  93 S16       29.64S
NAS CORPUS CHR CLEAR     69  69 100 S15       29.65S
ROCKPORT       CLEAR     70  66  87 S12G18    29.64F
KINGSVILLE NAS PTCLDY    68  68 100 S12       29.64S
ALICE          PTCLDY    65  64  97 S8        29.63F
ORANGE GROVE   CLEAR     63  63 100 S8        29.65S FOG
FALFURRIAS     NOT AVBL
$$

...VICTORIA AREA OBSERVATIONS...

CITY           SKY/WX    TMP DP  RH WIND       PRES   REMARKS
VICTORIA       CLOUDY    70  67  90 S17       29.65F
BEEVILLE       FAIR      67  67 100 S12       29.64S
PLEASANTON     CLEAR     63  62  97 CALM      29.65S
SAN ANTONIO    PTCLDY    61  59  93 CALM      29.66S
$$

...LAREDO AREA OBSERVATIONS...

CITY           SKY/WX    TMP DP  RH WIND       PRES   REMARKS
LAREDO         CLEAR     68  55  63 SE14      29.61F
COTULLA        CLEAR     65  58  78 CALM      29.62R
DEL RIO        PTCLDY    67  41  38 N6        29.65F
MCALLEN        PTCLDY    70  66  87 SE10      29.63S
HEBBRONVILLE   MOCLDY    61  60  95 SE3       29.64S
$$

...OTHER TEXAS OBSERVATIONS...

CITY           SKY/WX    TMP DP  RH WIND       PRES   REMARKS
BROWNSVILLE    PTCLDY    70  67  90 SE14      29.65F
HOUSTON        MOCLDY    66  63  90 S10       29.67R
COL. STATION   MOCLDY    64  62  93 S12       29.64S
AUSTIN         MOCLDY    64  63  96 S7        29.65S
WACO           PTCLDY    63  61  93 S13       29.63F
FORT WORTH     PTCLDY    68  59  73 SW13      29.58R
WICHITA FALLS  CLEAR     49  38  65 N20G31    29.66R
LUBBOCK        CLEAR     46  13  26 NW9       29.72R
EL PASO        CLEAR     56   3  11 SW15G28   29.86R
$$

...MARINE OBSERVATIONS...

STATION/POSITION TIME  SKY/WX   TEMP    WIND        PRES    VSBY  WAVE   SWELL
                                AIR SEA DIR/SP/G                  HT/PER HT/PER
                 (UTC)          (F)     (DEG/KT/KT) (MB)    (MI)  (FT/S) (FT/S)
PORT ARANSAS     0700            70 71  160/ 14/ 16 1004.2S
BUOY 90 E PORT A 0750            71 69  150/ 23/ 27 1004.5F         6/ 6
BUOY 45 SE BAFFI 0750            74     160/ 21/ 25 1003.6F         5/ 6
BUOY 200 E PT IS 0750            73 73  140/ 17/ 21 1006.2F         4/ 5
BUOY 15 E GALVES 0750            67 65  160/ 17/ 21 1004.6F         4/ 5
$$



USA.gov is the U.S. government's official web portal to all federal, state and local government web resources and services.